Presure
118 128 128 194 251 271 304 284 289 308 331 303 313 223 299 288 294 298 317 313 323 269 256 236 245 244 233 253 227 203 241 234 215 223 204 203 205 194 188 187 183 184 184 182 177 187 188
159 131 133 153 256 301 282 277 297 338 314 300 321 309 312 282 287 287 292 313 305 294 252 254 245 249 242 237 242 233 232 232 229 235 217 212 203 201 200 198 187 186 189 181 182 190 184
135 184 183 195 265 287 275 285 300 318 346 330 315 280 276 98 283 278 286 284 312 308 289 272 256 257 239 241 238 240 235 234 219 244 219 231 205 203 203 207 201 196 196 190 182 182 194
107 165 123 221 128 294 274 300 343 331 350 298 367 334 316 292 289 213 275 278 281 317 305 280 261 250 234 238 237 240 231 231 246 221 232 228 228 213 202 201 198 200 197 204 205 207 206
163 171 133 141 185 295 275 306 322 314 315 454 453 442 452 580 432 297 277 275 276 271 333 296 277 257 246 245 241 232 239 229 218 232 259 221 242 216 225 202 203 197 196 201 202 205 204
140 133 125 162 165 297 290 301 327 337 465 561 465 438 467 524 534 331 274 269 269 268 270 300 295 298 256 242 244 243 238 230 226 230 232 231 232 239 221 222 205 204 207 203 200 197 196
141 140 139 144 256 296 310 320 355 332 515 485 444 508 524 511 543 513 301 272 268 252 274 285 290 285 286 292 259 242 245 233 226 229 225 235 229 241 216 231 223 224 210 201 203 205 204
124 134 205 160 140 291 315 335 352 550 520 465 464 461 495 496 508 578 512 265 258 257 262 263 297 283 268 266 282 291 268 237 235 231 234 231 244 240 244 217 231 223 219 221 221 220 220
121 143 191 183 297 312 313 339 335 601 485 441 422 449 434 492 524 574 492 283 265 251 245 260 265 312 275 263 268 256 264 254 242 232 228 227 232 246 240 237 221 225 236 227 221 217 214
116 204 136 251 297 306 316 331 324 503 438 429 416 414 431 459 484 554 474 297 262 248 249 243 260 268 288 260 247 259 247 255 238 228 238 236 238 242 239 240 237 249 237 240 227 230 215
121 191 144 237 295 308 323 340 337 430 437 424 417 423 420 428 512 515 481 354 265 253 246 250 248 261 266 279 305 253 266 253 254 248 246 238 231 242 251 289 296 257 260 242 227 223 219
203 225 238 293 328 215 324 332 342 408 446 425 444 431 428 431 491 460 416 348 286 250 243 249 244 253 254 282 305 297 261 262 254 249 254 262 267 260 284 280 270 257 258 245 235 222 219
202 152 237 295 303 327 321 342 331 434 442 430 420 426 440 466 510 388 360 333 315 270 246 237 241 254 251 289 283 283 284 276 262 271 280 273 271 273 263 254 250 252 252 249 234 219 218
213 228 238 293 291 322 315 322 419 451 441 440 435 493 514 526 434 356 351 326 316 280 241 237 238 257 294 281 273 271 273 272 268 258 254 261 259 256 248 234 249 244 234 240 234 221 209
221 232 240 298 289 300 310 329 339 442 452 451 456 491 535 540 362 359 339 318 319 272 245 231 247 247 281 269 262 258 255 250 250 251 253 252 249 251 247 239 239 237 236 227 223 222 214
228 238 132 290 285 166 367 338 336 432 435 474 458 492 508 298 354 337 324 315 297 259 243 232 244 282 264 256 253 247 243 244 241 231 239 238 235 233 234 236 232 226 222 219 214 210 212
149 237 285 297 282 297 314 322 332 446 463 480 337 473 504 372 234 322 320 322 266 239 232 244 246 274 259 253 247 247 242 234 233 231 230 229 222 225 224 210 207 213 213 241 245 236 237
230 245 283 295 282 294 319 344 334 422 493 503 263 359 360 361 328 328 316 266 251 233 246 235 278 263 249 248 241 240 236 233 232 226 223 227 219 220 246 249 242 238 232 226 224 255 257
249 270 272 295 271 295 364 312 337 469 485 534 537 348 362 359 347 305 266 230 230 241 250 282 270 257 248 240 238 231 235 236 232 235 227 255 257 245 236 232 224 219 215 235 242 245 242
241 265 182 289 274 284 305 296 328 306 549 485 531 366 316 346 292 267 248 238 245 246 277 279 258 242 241 236 232 234 231 256 265 254 251 244 235 223 217 218 216 230 245 234 233 234 236
236 272 211 288 264 282 298 281 299 324 441 389 384 341 354 293 245 250 253 239 240 233 288 259 246 239 233 230 227 227 266 257 250 241 230 217 209 213 225 218 238 229 224 228 155 233 239
305 256 182 281 268 255 282 270 291 310 292 342 345 347 301 260 261 254 231 200 227 278 271 250 240 233 228 223 218 217 213 210 214 217 212 210 214 214 214 208 236 222 224 220 213 225 218
269 257 181 291 268 252 280 274 291 284 323 285 368 335 319 278 256 255 229 231 187 277 261 248 237 230 226 223 221 218 217 217 212 217 221 214 222 199 247 219 227 222 218 212 213 219 226
265 263 232 283 275 267 282 284 267 306 279 307 296 398 340 323 255 253 241 228 233 224 258 245 226 227 227 223 221 221 219 217 220 217 214 219 227 225 239 242 223 221 214 211 221 201 217
293 290 207 276 283 280 268 281 278 286 287 321 298 286 393 371 304 253 242 239 229 224 188 248 235 227 226 220 219 218 220 226 214 214 212 248 226 225 228 239 225 212 225 218 210 216 225
266 274 271 282 284 290 255 279 276 292 269 312 311 287 280 393 349 273 253 240 243 229 231 246 241 232 231 227 225 217 224 215 216 204 240 228 221 168 201 198 217 224 219 207 210 224 215
298 282 229 278 93 286 276 267 278 282 272 287 305 305 265 279 396 377 274 255 238 241 222 240 239 243 237 234 232 229 224 232 208 209 222 228 213 236 221 206 179 208 217 212 214 223 224
297 283 289 284 284 277 284 286 273 280 267 277 306 269 294 262 286 380 373 264 251 236 236 231 227 249 247 243 240 242 225 227 213 211 221 235 210 193 226 192 194 205 206 208 211 219 210
290 280 291 284 283 282 291 283 271 276 277 293 257 299 297 278 267 327 348 347 264 250 242 229 230 230 234 237 250 256 237 210 198 215 213 227 187 191 214 200 215 168 229 219 153 230 210
Wind_Speed
55 74 81 79 104 82 82 80 75 64 50 46 40 32 46 48 47 48 46 57 65 85 92 83 89 87 83 85 80 80 85 86 87 89 91 92 92 97 95 94 91 95 93 93 88 90 93
78 84 85 87 109 86 84 80 71 63 61 60 49 43 44 50 53 49 51 51 63 84 84 93 91 90 85 79 83 84 84 82 86 87 89 93 91 91 92 94 97 96 94 94 92 96 94
87 75 95 94 115 96 94 85 77 66 61 55 56 61 54 29 57 58 53 55 54 68 90 95 94 91 83 82 80 87 81 83 85 84 87 88 91 91 89 89 91 95 99 103 93 94 97
47 91 71 102 87 97 98 89 83 76 70 64 61 66 69 71 58 47 60 56 57 53 73 94 93 88 83 79 85 84 82 80 79 83 82 85 87 89 90 89 89 93 91 91 93 93 92
75 80 82 99 86 101 105 96 92 87 81 62 55 50 48 28 62 63 65 60 58 59 60 77 87 87 84 84 82 82 84 81 80 80 78 83 84 87 91 93 92 91 90 90 89 91 90
91 88 75 105 97 103 104 99 97 92 64 33 41 42 37 27 26 36 68 65 63 61 61 70 67 70 84 81 83 85 84 81 79 81 76 75 83 83 89 90 92 92 92 89 90 87 84
88 99 100 100 125 103 100 100 98 97 41 38 38 25 19 18 16 33 71 74 66 64 56 46 64 67 67 74 92 82 85 82 77 77 76 77 77 83 87 87 90 91 94 90 91 91 91
67 95 102 99 95 107 101 105 101 37 23 32 28 26 22 15 15 15 40 74 69 62 53 51 52 63 68 70 67 72 82 78 82 79 77 76 73 81 81 82 86 89 91 92 93 94 88
69 97 103 108 110 105 100 106 102 25 22 33 32 27 17 23 20 9 41 77 72 62 57 52 49 52 64 66 67 72 73 77 81 75 75 72 74 73 78 79 82 83 88 89 87 86 84
63 108 88 128 109 105 100 104 101 27 39 35 31 28 18 23 6 11 44 76 75 61 60 54 48 45 53 64 69 69 68 74 75 73 80 77 74 74 74 80 80 81 82 86 82 83 82
76 95 93 117 108 106 103 106 99 66 49 42 37 23 16 5 16 25 51 75 76 69 60 56 48 45 45 44 52 64 67 69 72 74 73 74 69 71 72 68 64 78 78 82 79 76 77
109 120 126 114 109 85 105 106 105 73 39 39 31 17 13 6 8 43 63 77 78 68 56 46 43 43 39 37 39 51 66 65 68 68 69 71 70 66 61 57 61 65 69 78 76 72 72
106 84 126 109 108 109 102 104 102 65 47 39 33 27 14 7 17 64 71 73 72 71 55 46 42 38 37 37 36 37 43 55 57 57 49 49 52 50 50 53 56 59 63 71 71 68 67
114 121 126 106 108 108 100 99 81 55 43 34 34 25 16 9 61 66 72 68 66 61 53 44 39 36 36 38 35 36 36 35 37 37 41 41 41 43 46 49 49 55 59 65 66 69 69
118 122 110 99 105 105 98 98 97 59 46 32 26 26 12 15 67 65 66 65 63 57 54 38 36 32 38 36 35 33 33 33 33 33 31 33 37 38 41 45 46 50 56 62 62 65 67
115 121 79 97 101 67 98 94 94 64 47 29 18 17 15 32 67 67 63 60 54 54 42 34 33 36 38 35 33 34 33 31 30 33 31 35 36 38 41 42 43 46 52 55 58 62 69
90 119 97 90 98 96 93 90 90 62 39 26 25 13 22 66 17 60 60 51 49 37 34 33 32 39 38 36 34 31 30 32 33 34 34 32 34 37 39 36 41 45 52 41 41 53 59
112 109 95 88 91 94 94 88 86 61 35 21 38 43 53 60 61 51 46 46 38 32 31 30 37 37 32 28 26 28 30 31 32 31 30 32 33 33 24 22 25 28 35 41 46 32 36
111 100 94 85 90 90 91 85 82 42 33 33 19 25 45 52 52 45 45 30 31 33 30 35 38 33 29 28 28 29 29 26 26 25 26 22 17 19 25 23 30 36 41 28 19 21 33
107 97 59 80 84 84 83 76 79 74 34 35 29 43 22 42 47 40 31 26 26 24 31 36 33 30 28 27 27 25 23 24 27 26 24 21 21 23 26 27 30 24 14 28 25 22 27
101 88 67 76 85 78 78 78 77 68 27 21 23 16 32 34 13 20 23 19 17 11 32 35 34 32 31 28 25 22 28 28 26 24 22 21 26 23 18 22 15 22 25 15 16 21 27
69 90 55 72 77 83 72 76 68 71 60 38 25 12 22 15 22 20 13 7 14 25 34 34 33 32 30 30 28 25 24 23 22 22 22 23 21 19 20 23 15 20 11 15 29 24 31
87 86 53 68 70 79 69 64 68 57 53 48 16 10 10 24 15 19 14 18 3 31 32 34 34 33 32 30 27 27 26 25 23 20 18 20 18 21 11 12 16 13 14 20 22 21 29
84 62 60 66 64 71 68 65 57 74 50 42 38 7 7 21 23 23 24 21 22 21 35 37 32 33 32 30 29 28 27 24 21 20 19 16 14 11 10 7 16 13 17 23 12 26 24
67 62 54 67 68 68 64 64 61 60 54 46 35 32 15 18 29 28 30 30 24 25 15 37 36 34 34 31 30 29 28 25 22 20 19 15 14 10 9 10 12 10 11 8 14 15 17
73 67 65 66 66 66 65 61 57 65 52 53 41 29 26 22 21 41 38 34 36 31 30 35 37 37 37 35 33 30 28 24 24 23 15 17 15 18 12 12 9 13 14 16 17 17 15
56 59 57 62 30 63 55 56 57 59 53 56 44 34 20 22 27 29 49 45 36 39 30 35 34 40 39 37 35 32 28 25 24 21 18 23 15 12 9 12 13 12 18 17 14 19 19
54 56 58 60 61 58 55 55 52 56 47 53 46 39 32 17 19 25 28 54 48 38 38 37 34 40 40 40 38 33 29 26 23 20 17 23 19 6 17 14 12 7 10 13 14 17 16
56 58 57 60 59 59 60 52 50 50 50 54 44 43 38 30 21 23 30 34 58 53 50 37 41 40 38 37 36 35 32 27 23 19 17 23 16 11 18 18 16 14 20 17 11 19 16
Wind_Direction
355 351 347 340 351 346 342 341 337 333 323 312 293 279 270 269 260 252 249 239 237 231 226 233 232 232 234 232 230 236 230 229 230 229 233 234 235 237 238 238 241 242 244 244 244 247 247
342 349 352 346 350 345 341 339 335 330 323 314 298 280 266 259 259 250 245 242 234 228 228 227 231 230 232 230 231 234 232 232 231 229 231 232 235 237 240 240 239 242 245 245 245 247 247
347 333 349 350 348 343 341 337 334 329 318 303 296 294 280 300 247 250 242 238 237 232 226 226 229 228 230 231 230 233 233 232 232 231 232 229 234 236 238 240 242 244 246 247 249 251 251
345 339 354 351 350 342 340 336 335 330 322 312 298 281 272 266 246 249 241 236 233 234 230 226 226 227 227 226 227 229 231 233 233 232 233 232 231 232 237 239 240 242 245 248 249 252 254
349 330 347 340 344 341 340 337 336 331 327 307 300 289 278 284 244 231 235 232 229 228 227 227 226 227 226 226 225 228 230 231 233 234 233 233 232 233 233 238 239 242 244 246 248 252 254
336 344 349 340 345 343 341 337 338 334 318 308 306 296 287 286 257 240 230 232 226 225 224 224 222 224 227 227 227 225 227 229 231 234 235 233 235 235 235 234 239 242 242 246 248 251 254
334 336 339 334 345 343 341 341 339 337 320 321 318 315 314 294 285 225 217 223 223 228 223 226 222 221 224 228 227 224 224 227 232 233 234 238 237 238 237 235 238 238 241 247 249 250 252
352 345 344 342 338 344 343 345 341 325 325 332 332 330 351 317 276 273 200 221 224 225 219 220 223 219 221 223 228 229 226 227 230 234 236 237 238 238 238 238 239 240 241 242 244 248 250
357 346 345 341 344 345 344 347 345 325 343 341 339 350 330 338 322 272 189 208 217 222 220 216 220 216 220 220 223 222 223 226 227 233 236 237 239 240 239 241 243 243 242 244 246 248 250
339 343 344 346 345 346 346 349 347 357 0 350 345 340 335 348 266 204 179 203 214 220 216 218 217 220 220 218 220 223 222 223 225 230 233 237 241 243 242 242 243 243 245 245 246 248 249
354 340 338 341 346 346 349 351 349 359 359 351 341 337 342 325 325 183 165 191 206 210 218 212 214 218 220 224 220 222 224 224 227 229 233 236 236 240 242 247 239 244 244 247 247 248 249
340 344 346 342 349 347 351 353 351 356 353 350 338 314 323 306 276 162 157 187 200 209 215 211 214 219 217 219 211 220 225 225 225 230 235 239 239 239 240 238 238 242 245 246 248 250 251
339 347 345 342 348 351 353 354 353 352 348 344 340 331 312 285 184 152 170 184 194 201 208 210 213 217 217 201 203 210 218 225 226 230 227 226 231 233 236 240 242 246 248 249 250 251 255
338 344 343 342 346 349 353 356 356 359 357 350 343 336 331 160 155 163 170 180 188 191 203 206 212 213 194 195 196 203 206 207 206 211 219 225 230 233 238 244 247 248 251 253 253 252 252
339 343 342 345 345 349 352 358 356 357 2 355 354 356 26 138 157 162 167 175 183 182 197 197 207 206 188 190 189 194 198 202 207 212 217 224 231 232 239 244 247 251 251 254 256 259 258
341 341 348 343 345 348 358 360 359 356 356 4 8 22 102 141 159 163 169 176 174 182 191 197 201 184 186 188 188 194 198 201 205 216 216 222 230 236 239 243 248 252 258 259 261 261 262
340 340 338 348 344 349 354 2 2 354 2 14 16 87 122 155 157 165 169 169 167 176 187 195 196 183 186 186 188 191 196 204 210 216 222 227 234 238 243 247 251 256 259 264 267 266 271
340 339 337 347 345 348 354 3 5 7 14 32 10 139 149 154 161 163 152 157 169 176 183 189 180 183 183 185 188 194 203 209 214 219 225 229 234 242 227 231 234 248 252 257 267 288 291
338 334 337 347 342 350 359 4 9 10 17 58 80 152 155 161 161 142 154 170 178 179 184 176 177 175 177 179 185 198 205 207 213 210 216 183 183 187 210 224 235 246 256 272 291 308 303
337 334 338 346 343 349 359 1 11 12 46 84 92 163 146 154 139 153 163 169 173 173 180 174 168 173 173 180 189 198 200 185 166 173 173 180 190 209 226 238 250 253 270 272 288 303 313
334 335 337 345 339 349 359 360 10 14 47 58 114 114 154 136 115 158 165 160 163 170 171 166 170 173 178 183 189 190 166 166 172 176 187 202 218 225 239 256 242 260 273 297 276 330 343
330 333 334 342 340 340 351 358 5 11 12 23 23 114 129 161 167 167 169 45 189 165 170 172 178 183 186 191 195 196 199 204 206 203 208 215 221 235 250 263 207 254 273 282 292 324 310
330 330 333 340 339 337 348 351 359 7 10 13 9 13 178 181 186 178 210 202 10 171 177 178 185 190 196 196 195 200 205 205 209 211 206 221 226 249 210 244 218 242 271 278 297 321 328
328 333 331 338 340 339 346 353 347 358 7 6 14 290 266 211 207 194 200 221 205 207 183 186 200 199 201 202 200 202 208 209 211 210 215 227 218 244 200 211 216 245 262 283 319 298 316
325 329 330 333 337 339 338 347 350 350 353 357 5 7 278 241 210 209 212 217 223 210 238 191 201 205 207 210 206 207 210 208 206 209 221 205 208 230 209 185 208 252 245 274 299 291 325
324 326 328 330 333 338 331 343 347 350 344 347 348 356 357 254 243 217 215 221 215 224 209 201 202 208 211 215 214 214 210 202 203 216 198 197 209 230 285 215 185 228 244 291 300 319 325
320 324 330 326 326 335 335 334 343 348 342 344 335 331 341 343 239 234 218 219 225 218 224 207 208 210 213 217 218 215 213 208 209 216 212 192 222 219 206 192 234 261 256 287 299 313 324
317 322 321 322 326 330 334 338 335 343 336 337 327 332 318 322 326 230 225 221 223 233 225 216 217 207 210 214 218 217 212 205 208 220 218 217 227 190 209 240 241 268 318 306 308 306 335
315 318 318 321 323 325 331 330 330 334 333 331 318 311 304 312 306 270 234 227 220 219 221 225 217 218 214 213 213 208 208 204 224 217 231 221 192 201 238 238 253 253 253 289 271 303 330